Time,TemperatureF,DewpointF,PressureIn,WindDirection,WindDirectionDegrees,WindSpeedMPH,WindSpeedGustMPH,Humidity,HourlyPrecipIn,Conditions,Clouds,dailyrainin,SoftwareType,DateUTC
2013-02-08 00:08:00,28.1,20.0,30.41,East,98,0.0,0.0,72,0.00,,,0.00,weatherlink.com 1.10,2013-02-08 05:08:00,
2013-02-08 00:23:00,28.2,21.0,30.39,SSE,148,0.0,0.0,74,0.00,,,0.00,weatherlink.com 1.10,2013-02-08 05:23:00,
2013-02-08 00:38:00,29.3,23.0,30.38,SE,126,0.0,1.0,77,0.00,,,0.00,weatherlink.com 1.10,2013-02-08 05:38:00,
2013-02-08 00:53:00,29.8,24.0,30.37,ESE,106,0.0,1.0,80,0.00,,,0.00,weatherlink.com 1.10,2013-02-08 05:53:00,
2013-02-08 01:08:00,28.7,23.0,30.36,ESE,103,0.0,1.0,79,0.00,,,0.00,weatherlink.com 1.10,2013-02-08 06:08:00,
2013-02-08 01:23:00,28.1,23.0,30.36,SE,124,0.0,1.0,80,0.00,,,0.00,weatherlink.com 1.10,2013-02-08 06:23:00,
2013-02-08 01:38:00,27.9,23.0,30.36,ESE,117,0.0,0.0,80,0.00,,,0.00,weatherlink.com 1.10,2013-02-08 06:38:00,
2013-02-08 01:53:00,26.8,21.0,30.35,SE,146,0.0,0.0,80,0.00,,,0.00,weatherlink.com 1.10,2013-02-08 06:53:00,
2013-02-08 02:08:00,-999.0,-99.9,30.34,North,-999,-999.0,-999.0,-999,0.00,,,0.00,weatherlink.com 1.10,2013-02-08 07:08:00,
2013-02-08 02:23:00,-999.0,-99.9,30.34,North,-999,-999.0,-999.0,-999,0.00,,,0.00,weatherlink.com 1.10,2013-02-08 07:23:00,
2013-02-08 02:38:00,-999.0,-99.9,30.34,North,-999,-999.0,-999.0,-999,0.00,,,0.00,weatherlink.com 1.10,2013-02-08 07:38:00,
2013-02-08 02:53:00,-999.0,-99.9,30.33,North,-999,-999.0,-999.0,-999,0.00,,,0.00,weatherlink.com 1.10,2013-02-08 07:53:00,
2013-02-08 03:08:00,-999.0,-99.9,30.32,North,-999,-999.0,-999.0,-999,0.00,,,0.00,weatherlink.com 1.10,2013-02-08 08:08:00,
2013-02-08 03:23:00,-999.0,-99.9,30.32,North,-999,-999.0,-999.0,-999,0.00,,,0.00,weatherlink.com 1.10,2013-02-08 08:23:00,
2013-02-08 03:39:00,-999.0,-99.9,30.31,North,-999,-999.0,-999.0,-999,0.00,,,0.00,weatherlink.com 1.10,2013-02-08 08:39:00,
2013-02-08 03:54:00,-999.0,-99.9,30.30,North,-999,-999.0,-999.0,-999,0.00,,,0.00,weatherlink.com 1.10,2013-02-08 08:54:00,
2013-02-08 04:09:00,-999.0,-99.9,30.29,North,-999,-999.0,-999.0,-999,0.00,,,0.00,weatherlink.com 1.10,2013-02-08 09:09:00,
2013-02-08 04:24:00,-999.0,-99.9,30.28,North,-999,-999.0,-999.0,-999,0.00,,,0.00,weatherlink.com 1.10,2013-02-08 09:24:00,
2013-02-08 04:39:00,-999.0,-99.9,30.28,North,-999,-999.0,-999.0,-999,0.00,,,0.00,weatherlink.com 1.10,2013-02-08 09:39:00,
2013-02-08 04:54:00,-999.0,-99.9,30.26,North,-999,-999.0,-999.0,-999,0.00,,,0.00,weatherlink.com 1.10,2013-02-08 09:54:00,
2013-02-08 05:09:00,-999.0,-99.9,30.26,North,-999,-999.0,-999.0,-999,0.00,,,0.00,weatherlink.com 1.10,2013-02-08 10:09:00,
2013-02-08 05:24:00,-999.0,-99.9,30.25,North,-999,-999.0,-999.0,-999,0.00,,,0.00,weatherlink.com 1.10,2013-02-08 10:24:00,
2013-02-08 05:39:00,-999.0,-99.9,30.24,North,-999,-999.0,-999.0,-999,0.00,,,0.00,weatherlink.com 1.10,2013-02-08 10:39:00,
2013-02-08 05:54:00,-999.0,-99.9,30.23,North,-999,-999.0,-999.0,-999,0.00,,,0.00,weatherlink.com 1.10,2013-02-08 10:54:00,
2013-02-08 06:09:00,-999.0,-99.9,30.23,North,-999,-999.0,-999.0,-999,0.00,,,0.00,weatherlink.com 1.10,2013-02-08 11:09:00,
2013-02-08 06:24:00,-999.0,-99.9,30.23,North,-999,-999.0,-999.0,-999,0.00,,,0.00,weatherlink.com 1.10,2013-02-08 11:24:00,
2013-02-08 06:39:00,-999.0,-99.9,30.23,North,-999,-999.0,-999.0,-999,0.00,,,0.00,weatherlink.com 1.10,2013-02-08 11:39:00,
2013-02-08 06:54:00,-999.0,-99.9,30.22,North,-999,-999.0,-999.0,-999,0.00,,,0.00,weatherlink.com 1.10,2013-02-08 11:54:00,
2013-02-08 07:10:00,-999.0,-99.9,30.20,North,-999,-999.0,-999.0,-999,0.00,,,0.00,weatherlink.com 1.10,2013-02-08 12:10:00,
2013-02-08 07:25:00,-999.0,-99.9,30.20,North,-999,-999.0,-999.0,-999,0.00,,,0.00,weatherlink.com 1.10,2013-02-08 12:25:00,
2013-02-08 07:40:00,-999.0,-99.9,30.21,North,-999,-999.0,-999.0,-999,0.00,,,0.00,weatherlink.com 1.10,2013-02-08 12:40:00,
2013-02-08 07:55:00,-999.0,-99.9,30.20,North,-999,-999.0,-999.0,-999,0.00,,,0.00,weatherlink.com 1.10,2013-02-08 12:55:00,
2013-02-08 08:10:00,-999.0,-99.9,30.20,North,-999,-999.0,-999.0,-999,0.00,,,0.00,weatherlink.com 1.10,2013-02-08 13:10:00,
2013-02-08 08:25:00,-999.0,-99.9,30.18,North,-999,-999.0,-999.0,-999,0.00,,,0.00,weatherlink.com 1.10,2013-02-08 13:25:00,
2013-02-08 08:40:00,33.5,32.0,30.18,SE,127,9.0,11.0,93,0.00,,,0.00,weatherlink.com 1.10,2013-02-08 13:40:00,
2013-02-08 08:55:00,33.6,32.0,30.17,SE,143,5.0,17.0,94,0.00,,,0.00,weatherlink.com 1.10,2013-02-08 13:55:00,
2013-02-08 09:10:00,33.5,32.0,30.17,East,101,10.0,14.0,94,0.01,,,0.01,weatherlink.com 1.10,2013-02-08 14:10:00,
2013-02-08 09:25:00,33.3,32.0,30.16,East,82,10.0,14.0,94,0.01,,,0.01,weatherlink.com 1.10,2013-02-08 14:25:00,
2013-02-08 09:40:00,33.4,32.0,30.14,SSE,150,4.0,14.0,94,0.01,,,0.01,weatherlink.com 1.10,2013-02-08 14:40:00,
2013-02-08 09:55:00,33.2,32.0,30.14,ENE,68,9.0,13.0,94,0.01,,,0.01,weatherlink.com 1.10,2013-02-08 14:55:00,
2013-02-08 10:10:00,32.9,32.0,30.13,SE,131,6.0,10.0,95,0.00,,,0.01,weatherlink.com 1.10,2013-02-08 15:10:00,
2013-02-08 10:25:00,32.9,32.0,30.11,SE,124,7.0,13.0,95,0.00,,,0.01,weatherlink.com 1.10,2013-02-08 15:25:00,
2013-02-08 10:40:00,32.9,32.0,30.10,ESE,121,6.0,12.0,95,0.00,,,0.01,weatherlink.com 1.10,2013-02-08 15:40:00,
2013-02-08 10:55:00,33.0,32.0,30.09,SE,124,8.0,14.0,95,0.01,,,0.02,weatherlink.com 1.10,2013-02-08 15:55:00,
2013-02-08 11:10:00,33.1,32.0,30.07,ESE,117,7.0,8.0,95,0.01,,,0.02,weatherlink.com 1.10,2013-02-08 16:10:00,
2013-02-08 11:25:00,33.1,32.0,30.05,East,93,5.0,10.0,95,0.01,,,0.02,weatherlink.com 1.10,2013-02-08 16:25:00,
2013-02-08 11:40:00,33.1,32.0,30.04,ESE,122,4.0,10.0,95,0.01,,,0.02,weatherlink.com 1.10,2013-02-08 16:40:00,
2013-02-08 11:56:00,33.3,32.0,30.02,ESE,117,8.0,11.0,95,0.00,,,0.02,weatherlink.com 1.10,2013-02-08 16:56:00,
2013-02-08 12:11:00,33.5,32.0,30.01,SSE,152,6.0,13.0,95,0.01,,,0.03,weatherlink.com 1.10,2013-02-08 17:11:00,
2013-02-08 12:26:00,33.6,32.0,29.99,East,79,8.0,15.0,95,0.01,,,0.03,weatherlink.com 1.10,2013-02-08 17:26:00,
2013-02-08 12:41:00,33.6,33.0,29.98,ESE,119,6.0,12.0,96,0.02,,,0.04,weatherlink.com 1.10,2013-02-08 17:41:00,
2013-02-08 12:56:00,33.6,33.0,29.96,SE,133,6.0,14.0,96,0.03,,,0.05,weatherlink.com 1.10,2013-02-08 17:56:00,
2013-02-08 13:11:00,33.6,33.0,29.94,ESE,103,8.0,10.0,96,0.03,,,0.06,weatherlink.com 1.10,2013-02-08 18:11:00,
2013-02-08 13:26:00,33.5,33.0,29.92,SSE,166,7.0,11.0,96,0.03,,,0.06,weatherlink.com 1.10,2013-02-08 18:26:00,
2013-02-08 13:41:00,33.4,32.0,29.91,ESE,110,8.0,11.0,96,0.03,,,0.07,weatherlink.com 1.10,2013-02-08 18:41:00,
2013-02-08 13:56:00,33.5,33.0,29.89,ESE,122,9.0,11.0,96,0.02,,,0.07,weatherlink.com 1.10,2013-02-08 18:56:00,
2013-02-08 14:11:00,33.4,32.0,29.88,ESE,122,9.0,13.0,96,0.02,,,0.08,weatherlink.com 1.10,2013-02-08 19:11:00,
2013-02-08 14:26:00,33.4,32.0,29.86,ESE,112,11.0,13.0,96,0.02,,,0.08,weatherlink.com 1.10,2013-02-08 19:26:00,
2013-02-08 14:41:00,33.3,32.0,29.84,SSE,148,8.0,11.0,96,0.02,,,0.09,weatherlink.com 1.10,2013-02-08 19:41:00,
2013-02-08 14:56:00,33.3,32.0,29.82,East,91,11.0,12.0,96,0.02,,,0.09,weatherlink.com 1.10,2013-02-08 19:56:00,
2013-02-08 15:11:00,33.2,32.0,29.79,ESE,117,11.0,13.0,96,0.01,,,0.09,weatherlink.com 1.10,2013-02-08 20:11:00,
2013-02-08 15:26:00,33.1,32.0,29.77,SE,126,7.0,12.0,96,0.01,,,0.09,weatherlink.com 1.10,2013-02-08 20:26:00,
2013-02-08 15:41:00,33.1,32.0,29.76,ESE,109,6.0,12.0,96,0.01,,,0.10,weatherlink.com 1.10,2013-02-08 20:41:00,
2013-02-08 15:56:00,33.1,32.0,29.75,SE,131,6.0,9.0,96,0.01,,,0.10,weatherlink.com 1.10,2013-02-08 20:56:00,
2013-02-08 16:11:00,33.0,32.0,29.72,ESE,115,7.0,9.0,96,0.01,,,0.10,weatherlink.com 1.10,2013-02-08 21:11:00,
2013-02-08 16:26:00,32.9,32.0,29.71,ESE,122,5.0,9.0,96,0.01,,,0.10,weatherlink.com 1.10,2013-02-08 21:26:00,
2013-02-08 16:41:00,32.9,32.0,29.70,SSE,148,3.0,8.0,96,0.00,,,0.10,weatherlink.com 1.10,2013-02-08 21:41:00,
2013-02-08 16:57:00,32.9,32.0,29.69,ESE,117,5.0,8.0,96,0.00,,,0.10,weatherlink.com 1.10,2013-02-08 21:57:00,
2013-02-08 17:12:00,32.7,32.0,29.67,SE,129,4.0,7.0,96,0.00,,,0.10,weatherlink.com 1.10,2013-02-08 22:12:00,
2013-02-08 17:26:00,32.7,32.0,29.67,SSE,148,5.0,9.0,96,0.00,,,0.10,weatherlink.com 1.10,2013-02-08 22:26:00,
2013-02-08 17:41:00,32.6,32.0,29.67,SE,136,4.0,9.0,97,0.00,,,0.10,weatherlink.com 1.10,2013-02-08 22:41:00,
2013-02-08 17:58:00,32.5,32.0,29.65,ESE,117,6.0,9.0,97,0.00,,,0.10,weatherlink.com 1.10,2013-02-08 22:58:00,
2013-02-08 18:11:00,32.6,32.0,29.62,SE,124,5.0,8.0,97,0.00,,,0.10,weatherlink.com 1.10,2013-02-08 23:11:00,
2013-02-08 18:26:00,32.6,32.0,29.60,East,85,5.0,8.0,97,0.00,,,0.10,weatherlink.com 1.10,2013-02-08 23:26:00,
2013-02-08 18:41:00,32.6,32.0,29.58,South,181,4.0,7.0,97,0.00,,,0.10,weatherlink.com 1.10,2013-02-08 23:41:00,
2013-02-08 18:56:00,32.7,32.0,29.55,ESE,109,4.0,7.0,97,0.00,,,0.10,weatherlink.com 1.10,2013-02-08 23:56:00,
2013-02-08 19:11:00,32.7,32.0,29.53,South,190,3.0,5.0,97,0.00,,,0.10,weatherlink.com 1.10,2013-02-09 00:11:00,
2013-02-08 19:26:00,32.8,32.0,29.53,WSW,245,3.0,4.0,97,0.00,,,0.10,weatherlink.com 1.10,2013-02-09 00:26:00,
2013-02-08 19:41:00,32.8,32.0,29.48,SE,129,3.0,3.0,97,0.00,,,0.00,weatherlink.com 1.10,2013-02-09 00:41:00,
2013-02-08 19:57:00,32.9,32.0,29.49,South,175,2.0,5.0,97,0.00,,,0.00,weatherlink.com 1.10,2013-02-09 00:57:00,
2013-02-08 20:12:00,32.9,32.0,29.47,SSE,149,0.0,3.0,97,0.00,,,0.00,weatherlink.com 1.10,2013-02-09 01:12:00,
2013-02-08 20:27:00,32.8,32.0,29.45,SSE,154,0.0,0.0,97,0.00,,,0.00,weatherlink.com 1.10,2013-02-09 01:27:00,
2013-02-08 20:42:00,32.8,32.0,29.44,ESE,115,0.0,0.0,96,0.00,,,0.00,weatherlink.com 1.10,2013-02-09 01:42:00,
2013-02-08 20:59:00,32.7,32.0,29.43,SE,144,0.0,0.0,96,0.00,,,0.00,weatherlink.com 1.10,2013-02-09 01:59:00,
2013-02-08 21:12:00,32.6,32.0,29.42,SE,133,0.0,0.0,96,0.00,,,0.00,weatherlink.com 1.10,2013-02-09 02:12:00,
2013-02-08 21:27:00,32.4,31.0,29.43,South,187,0.0,0.0,96,0.00,,,0.00,weatherlink.com 1.10,2013-02-09 02:27:00,
2013-02-08 21:42:00,32.2,31.0,29.44,SE,134,0.0,0.0,96,0.00,,,0.00,weatherlink.com 1.10,2013-02-09 02:42:00,
2013-02-08 21:57:00,32.0,31.0,29.44,WSW,242,0.0,0.0,96,0.00,,,0.00,weatherlink.com 1.10,2013-02-09 02:57:00,
2013-02-08 22:12:00,31.0,30.0,29.43,WNW,285,0.0,0.0,96,0.00,,,0.00,weatherlink.com 1.10,2013-02-09 03:12:00,
2013-02-08 22:27:00,29.6,28.0,29.44,West,271,0.0,0.0,95,0.00,,,0.00,weatherlink.com 1.10,2013-02-09 03:27:00,
2013-02-08 22:42:00,28.3,27.0,29.43,ESE,116,0.0,0.0,95,0.00,,,0.00,weatherlink.com 1.10,2013-02-09 03:42:00,
2013-02-08 22:57:00,27.1,26.0,29.43,WSW,257,0.0,0.0,95,0.00,,,0.00,weatherlink.com 1.10,2013-02-09 03:57:00,
2013-02-08 23:12:00,26.3,25.0,29.45,West,266,0.0,0.0,95,0.00,,,0.00,weatherlink.com 1.10,2013-02-09 04:12:00,
2013-02-08 23:27:00,25.3,24.0,29.46,SSW,204,0.0,0.0,95,0.00,,,0.00,weatherlink.com 1.10,2013-02-09 04:27:00,
2013-02-08 23:42:00,24.9,24.0,29.46,WNW,301,0.0,0.0,95,0.00,,,0.00,weatherlink.com 1.10,2013-02-09 04:42:00,
2013-02-08 23:57:00,24.3,23.0,29.47,SW,225,0.0,0.0,95,0.00,,,0.00,weatherlink.com 1.10,2013-02-09 04:57:00,